Weather History for Blair, NE

Change the Weather History Date:

Saturday, December 29, 2012

  Actual Average (KOMA) Record (KOMA)
Temperature  
Mean Temperature 12 °F 24 °F  
Max Temperature 20 °F 33 °F 61 °F (1999)
Min Temperature 5 °F 14 °F -20 °F (1917)
Degree Days  
Heating Degree Days 52 41  
Month to date heating degree days 1126  
Since 1 July heating degree days 2396  
Cooling Degree Days 0 0  
Month to date cooling degree days 0  
Year to date cooling degree days 1113  
Moisture  
Dew Point 10 °F    
Average Humidity 82    
Maximum Humidity 88    
Minimum Humidity 72    
Precipitation  
Precipitation 0.00 in 0.02 in 0.88 in (1906)
Month to date precipitation 0.99  
Year to date precipitation 30.57  
Snow  
Snow 0.00 in 0.20 in - ()
Month to date snowfall 5.8  
Since 1 July snowfall 8.6  
Snow Depth -    
Sea Level Pressure  
Sea Level Pressure 30.15 in    
Wind  
Wind Speed 8 mph (SW)    
Max Wind Speed 17 mph    
Max Gust Speed -    
Visibility 9 miles    
Events Snow    
T = Trace of Precipitation, MM = Missing Value Source: NWS Daily Summary

Daily Weather History Graph

Daily Weather History Graph

Search for Another Location

Airport:

Trip Planner

Search our weather history database for the weather conditions in past years. The results will help you decide how hot, cold, wet, or windy it might be!

Date:

Astronomy

Dec. 29, 2012 Rise Set
Actual Time 7:50 AM CST 5:03 PM CST
Civil Twilight 7:18 AM CST 5:34 PM CST
Nautical Twilight 6:44 AM CST 6:09 PM CST
Astronomical Twilight 6:10 AM CST 6:43 PM CST
Moon 6:38 PM CST (12/29) 8:23 AM CST (12/29)
Length of Visible Light 10h 15m
Length of Day
9h 13m
Full, 98% of the Moon is Illuminated
Dec 29
Full
Jan 4
Last Quarter
Jan 11
New
Jan 18
First Quarter
Jan 26
Full

Hourly Weather History & Observations

Time (CST) Temp. Windchill Dew Point Humidity Pressure Visibility Wind Dir Wind Speed Gust Speed Precip Events Conditions
12:15 AM 18.1 °F 4.4 °F 14.0 °F 84% 30.08 in 10.0 mi NW 13.8 mph - N/A   Overcast
12:35 AM 17.6 °F 2.2 °F 13.6 °F 84% 30.08 in 10.0 mi NW 17.3 mph - N/A   Overcast
12:55 AM 17.6 °F 4.3 °F 13.8 °F 85% 30.09 in 10.0 mi NW 12.7 mph - N/A   Overcast
1:15 AM 17.6 °F 6.4 °F 13.8 °F 85% 30.09 in 10.0 mi WNW 9.2 mph - N/A Snow Light Snow
1:35 AM 17.2 °F 5.2 °F 13.5 °F 85% 30.09 in 10.0 mi WNW 10.4 mph - N/A Snow Light Snow
1:55 AM 16.7 °F 6.2 °F 13.1 °F 86% 30.10 in 10.0 mi WNW 8.1 mph - N/A   Overcast
2:15 AM 16.5 °F 3.6 °F 13.1 °F 86% 30.10 in 10.0 mi NW 11.5 mph - N/A Snow Light Snow
2:35 AM 16.2 °F 3.2 °F 12.7 °F 86% 30.10 in 7.0 mi NW 11.5 mph - N/A Snow Light Snow
2:55 AM 14.9 °F 4.0 °F 11.7 °F 87% 30.11 in 7.0 mi NW 8.1 mph - N/A Snow Light Snow
3:15 AM 13.8 °F 4.9 °F 10.4 °F 86% 30.12 in 7.0 mi WNW 5.8 mph - N/A Snow Light Snow
3:35 AM 13.1 °F 1.8 °F 9.5 °F 86% 30.13 in 10.0 mi WNW 8.1 mph - N/A   Overcast
3:55 AM 13.1 °F 4.0 °F 9.5 °F 86% 30.13 in 10.0 mi WNW 5.8 mph - N/A   Overcast
4:15 AM 12.7 °F 6.7 °F 9.0 °F 85% 30.13 in 10.0 mi WNW 3.5 mph - N/A   Overcast
4:35 AM 11.8 °F - 8.4 °F 86% 30.12 in 7.0 mi Calm Calm - N/A Snow Light Snow
4:55 AM 10.6 °F 4.3 °F 7.5 °F 87% 30.12 in 10.0 mi WSW 3.5 mph - N/A   Mostly Cloudy
5:15 AM 10.8 °F - 7.9 °F 88% 30.12 in 10.0 mi Calm Calm - N/A   Overcast
5:35 AM 10.4 °F 4.0 °F 7.3 °F 87% 30.13 in 10.0 mi West 3.5 mph - N/A   Scattered Clouds
6:15 AM 9.9 °F 1.6 °F 6.6 °F 87% 30.14 in 7.0 mi WSW 4.6 mph - N/A   Overcast
6:35 AM 9.3 °F 1.0 °F 6.1 °F 87% 30.14 in 7.0 mi SW 4.6 mph - N/A   Scattered Clouds
6:55 AM 9.5 °F -0.3 °F 6.4 °F 87% 30.15 in 7.0 mi WSW 5.8 mph - N/A   Clear
7:15 AM 7.0 °F - 3.4 °F 85% 30.14 in 7.0 mi Calm Calm - N/A   Clear
7:35 AM 7.0 °F - 3.6 °F 86% 30.14 in 7.0 mi Calm Calm - N/A   Clear
7:55 AM 7.0 °F - 3.6 °F 86% 30.15 in 5.0 mi Calm Calm - N/A   Clear
8:15 AM 6.8 °F -0.1 °F 3.2 °F 85% 30.16 in 5.0 mi WSW 3.5 mph - N/A   Clear
8:35 AM 5.4 °F -5.2 °F 1.8 °F 85% 30.16 in 5.0 mi WSW 5.8 mph - N/A   Clear
8:55 AM 5.9 °F -1.1 °F 2.1 °F 84% 30.15 in 5.0 mi WSW 3.5 mph - N/A   Clear
9:15 AM 5.9 °F -4.5 °F 2.3 °F 85% 30.17 in 5.0 mi WSW 5.8 mph - N/A Snow Light Snow
9:35 AM 6.1 °F -2.8 °F 2.3 °F 84% 30.17 in 7.0 mi WSW 4.6 mph - N/A   Clear
9:55 AM 7.0 °F -3.3 °F 3.2 °F 84% 30.18 in 7.0 mi WSW 5.8 mph - N/A   Clear
10:15 AM 7.7 °F -4.8 °F 4.3 °F 86% 30.19 in 7.0 mi WSW 8.1 mph - N/A   Clear
10:35 AM 8.2 °F -4.1 °F 4.8 °F 86% 30.19 in 10.0 mi WSW 8.1 mph - N/A   Clear
10:55 AM 9.3 °F -1.7 °F 5.9 °F 86% 30.19 in 10.0 mi SSW 6.9 mph - N/A   Clear
11:15 AM 10.4 °F 0.8 °F 6.8 °F 85% 30.19 in 10.0 mi WSW 5.8 mph - N/A   Clear
11:35 AM 11.3 °F 0.7 °F 7.7 °F 85% 30.18 in 10.0 mi SW 6.9 mph - N/A   Clear
11:55 AM 12.2 °F 2.9 °F 6.8 °F 79% 30.18 in 10.0 mi WSW 5.8 mph - N/A   Clear
12:15 PM 13.5 °F 3.3 °F 6.8 °F 75% 30.17 in 10.0 mi SW 6.9 mph - N/A   Clear
12:35 PM 14.4 °F 5.5 °F 7.5 °F 74% 30.16 in 10.0 mi SW 5.8 mph - N/A   Clear
12:55 PM 15.8 °F 8.6 °F 8.4 °F 73% 30.16 in 10.0 mi SW 4.6 mph - N/A   Clear
1:15 PM 16.5 °F 8.1 °F 9.1 °F 73% 30.16 in 10.0 mi SSW 5.8 mph - N/A   Clear
1:35 PM 16.7 °F 9.6 °F 9.3 °F 73% 30.15 in 10.0 mi SW 4.6 mph - N/A   Clear
1:55 PM 17.4 °F 9.1 °F 10.2 °F 73% 30.15 in 10.0 mi SW 5.8 mph - N/A   Clear
2:15 PM 18.7 °F 9.5 °F 11.3 °F 73% 30.15 in 10.0 mi SSW 6.9 mph - N/A   Clear
2:35 PM 19.4 °F 10.4 °F 11.8 °F 72% 30.14 in 10.0 mi SSW 6.9 mph - N/A   Clear
2:55 PM 18.9 °F 8.0 °F 11.1 °F 72% 30.15 in 10.0 mi SW 9.2 mph - N/A   Clear
3:15 PM 19.0 °F 10.0 °F 11.5 °F 72% 30.16 in 10.0 mi SSW 6.9 mph - N/A   Clear
3:35 PM 19.4 °F 11.5 °F 12.0 °F 73% 30.16 in 10.0 mi SW 5.8 mph - N/A   Clear
3:55 PM 19.4 °F 9.5 °F 12.2 °F 74% 30.17 in 10.0 mi SW 8.1 mph - N/A   Clear
4:15 PM 20.1 °F 11.3 °F 12.9 °F 74% 30.17 in 10.0 mi SSW 6.9 mph - N/A   Clear
4:35 PM 19.9 °F 13.4 °F 12.9 °F 74% 30.17 in 10.0 mi SSW 4.6 mph - N/A   Clear
5:15 PM 18.5 °F 10.4 °F 12.9 °F 79% 30.16 in 10.0 mi South 5.8 mph - N/A   Clear
5:35 PM 18.0 °F 11.1 °F 12.2 °F 78% 30.17 in 10.0 mi South 4.6 mph - N/A   Clear
5:55 PM 17.2 °F 8.9 °F 12.0 °F 80% 30.17 in 10.0 mi SSW 5.8 mph - N/A   Clear
6:15 PM 18.5 °F 11.7 °F 13.3 °F 80% 30.18 in 10.0 mi SSW 4.6 mph - N/A   Clear
6:35 PM 18.1 °F 8.9 °F 13.1 °F 81% 30.18 in 10.0 mi SSW 6.9 mph - N/A   Clear
7:15 PM 19.0 °F 10.0 °F 14.0 °F 81% 30.19 in 10.0 mi SSW 6.9 mph - N/A   Clear
7:35 PM 16.7 °F 7.2 °F 12.2 °F 82% 30.19 in 10.0 mi SSW 6.9 mph - N/A   Clear
7:55 PM 18.1 °F 10.0 °F 13.8 °F 83% 30.19 in 10.0 mi SSW 5.8 mph - N/A   Clear
8:15 PM 18.7 °F 9.5 °F 14.2 °F 83% 30.18 in 10.0 mi SW 6.9 mph - N/A   Clear
8:35 PM 17.6 °F 8.2 °F 13.1 °F 83% 30.18 in 10.0 mi SSW 6.9 mph - N/A   Clear
8:55 PM 18.1 °F 8.9 °F 13.8 °F 83% 30.18 in 10.0 mi SSW 6.9 mph - N/A   Clear
9:15 PM 18.9 °F 12.1 °F 14.5 °F 83% 30.19 in 10.0 mi SW 4.6 mph - N/A   Clear
9:35 PM 19.0 °F 11.1 °F 14.7 °F 83% 30.18 in 10.0 mi SW 5.8 mph - N/A   Clear
9:55 PM 19.0 °F 11.1 °F 14.9 °F 84% 30.19 in 10.0 mi SW 5.8 mph - N/A   Clear
10:15 PM 18.5 °F 10.4 °F 14.2 °F 83% 30.18 in 10.0 mi SW 5.8 mph - N/A   Clear
10:35 PM 16.7 °F 7.2 °F 12.9 °F 85% 30.18 in 10.0 mi SW 6.9 mph - N/A   Clear
10:55 PM 18.3 °F 10.2 °F 14.4 °F 85% 30.18 in 10.0 mi SW 5.8 mph - N/A   Clear
11:15 PM 18.0 °F 11.1 °F 14.0 °F 84% 30.18 in 10.0 mi SSW 4.6 mph - N/A   Clear
11:35 PM 18.3 °F 13.1 °F 14.5 °F 85% 30.18 in 10.0 mi South 3.5 mph - N/A   Clear
11:55 PM 18.3 °F 11.5 °F 14.2 °F 84% 30.19 in 10.0 mi SSW 4.6 mph - N/A   Clear